Flag for U.S.A. Weather past 2 weeks in Scottsdale, Arizona, U.S.A.

Now
100 °F

Clear.


Feels Like: 98 °F
Forecast: 83 / 96 °F
Wind: 6 mph from Southwest

Location: Scottsdale Airport

Current Time: Jul 28, 2015 at 8:31:45 PM

Latest Report: Jul 28, 2015 at 7:53 PM


Visibility: 10 mi

Pressure: 29.73 "Hg

Humidity: 21%

Dew point: 54 °F

Location of ScottsdaleLocation

Historic Weather in Scottsdale — Graph

°F

Scottsdale temperature yesterday

Maximum temperature yesterday: 102 °F (at 4:53 PM)
Minimum temperature yesterday: 85 °F (at 4:53 AM)
Average temperature yesterday: 94 °F

Past Weeks' High & Low Weather Summary

 TemperatureHumidityPressure
High106 °F (Jul 25, 3:53 PM)85% (Jul 18, 10:53 PM)30.02 "Hg (Jul 18, 10:53 PM)
Low74 °F (Jul 18, 10:53 PM)6% (Jul 25, 3:53 PM)29.62 "Hg (Jul 14, 5:53 PM)
Average93 °F29%29.81 "Hg
* Reported Jul 13 6:53 PM — Jul 28 6:53 PM, Scottsdale, Weather by CustomWeather, © 2015

Note: Actual official high and low records may vary slightly from our data, if they occured in-between our weather recording intervals... More about our weather records

Advertising

Scottsdale weather history for previous 24 hours

 ConditionsComfort  
Time TempWeatherWind HumidityBarometerVisibility
6:53 PM
Tue, Jul 28
102 °FSunny.7 mph18%29.70 "Hg10 mi
5:53 PM102 °FSunny.6 mph18%29.69 "Hg10 mi
4:53 PM103 °FSunny.6 mph16%29.70 "Hg10 mi
3:53 PM103 °FSunny.5 mph16%29.72 "Hg10 mi
2:53 PM103 °FSunny.8 mph16%29.75 "Hg10 mi
1:53 PM99 °FSunny.3 mph21%29.78 "Hg10 mi
12:53 PM98 °FSunny.5 mph22%29.80 "Hg10 mi
11:53 AM95 °FSunny.No wind25%29.83 "Hg10 mi
10:53 AM94 °FSunny.No wind26%29.83 "Hg10 mi
9:53 AM92 °FSunny.No wind29%29.84 "Hg10 mi
8:53 AM91 °FSunny.No wind30%29.84 "Hg10 mi
7:53 AM89 °FSunny.3 mph32%29.84 "Hg10 mi
6:53 AM89 °FSunny.No wind32%29.82 "Hg10 mi
5:53 AM88 °FSunny.No wind35%29.80 "Hg10 mi
4:53 AM88 °FClear.No wind35%29.78 "Hg10 mi
3:53 AM89 °FClear.3 mph34%29.76 "Hg10 mi
2:53 AM89 °FClear.5 mph32%29.75 "Hg10 mi
1:53 AM91 °FClear.No wind30%29.75 "Hg10 mi
12:53 AM93 °FClear.8 mph28%29.74 "Hg10 mi
11:53 PM
Mon, Jul 27
94 °FClear.9 mph28%29.74 "Hg10 mi
10:53 PM95 °FClear.No wind25%29.73 "Hg10 mi
9:53 PM96 °FClear.No wind23%29.72 "Hg10 mi
8:53 PM98 °FClear.3 mph21%29.71 "Hg10 mi
Weather by CustomWeather, © 2015

See weather overviewHow to use our weather pages